Weather Roundup
Issued by NWS

Home | Current Version | Previous Version | Graphics & Text | Print | Product List | Glossary Off
Versions: 1 2 3 4 5 6 7 8 9 10 11 12 13 14 15 16 17 18 19 20 21 22 23 24 25 26 27 28 29 30 31 32 33 34 35 36 37 38 39 40 41 42 43 44 45 46 47 48 49 50

678
NZUS93 KARX 071610
HRRWXR

CURRENT HOURLY OBSERVATIONS ACROSS
MUCH OF THE UPPER MISSISSIPPI VALLEY
NATIONAL WEATHER SERVICE LA CROSSE WI
1000 AM CST WED DEC 07 2016


...SOUTHEAST MINNESOTA...


CITY           SKY/WX    TMP DP  RH WIND       PRES   REMARKS
ROCHESTER      LGT SNOW  14   9  80 W24       30.04R WCI  -5
ROCHESTER/MAYO CLOUDY    15  10  78 W15G28    30.05R WCI   0
WINONA         FLURRIES  19  12  73 W7        30.07S WCI  10
AUSTIN         FLURRIES  16   9  73 W16       30.07S WCI   0
ALBERT LEA     LGT SNOW  18  12  79 W14G25    30.08S WCI   4
DODGE CENTER   LGT SNOW  14   9  79 W22G30    30.05R WCI  -4
PRESTON        LGT SNOW  13   8  79 W17G23    30.06R WCI  -4
OWATONNA       FLURRIES  16   9  73 W20G28    30.07R WCI  -1
FARIBAULT      CLOUDY    16   9  73 W17G25    30.07S WCI   0
$$

...ELSEWHERE IN MINNESOTA...


CITY           SKY/WX    TMP DP  RH WIND       PRES   REMARKS
MINNEAPOLIS    FLURRIES  18  10  71 W15G30    30.04R WCI   4
INTNL FALLS    LGT SNOW  22  19  89 W10       29.66R VSB 1   WCI  11
DULUTH         LGT SNOW  16  11  80 W22G29    29.74R BLWGSNOWWCI  -2
RED WING       FLURRIES  19   9  63 W23       30.04R WCI   2
REDWOOD FALLS  CLOUDY    15   4  61 W23G32    30.13R WCI  -3
MANKATO        MOSUNNY   14   6  70 W20G30    30.11R WCI  -3
WORTHINGTON    SUNNY     11   5  77 W29G35    30.14R WCI -11
FAIRMONT       SUNNY     14   7  73 W21G30    30.14R WCI  -4
$$

...SOUTHWEST WISCONSIN...


CITY           SKY/WX    TMP DP  RH WIND       PRES   REMARKS
LA CROSSE      CLOUDY    20  11  68 W16       30.08R WCI   6
PRAIRIE DU CHI CLOUDY    19  10  67 W13G18    30.13R WCI   6
BOSCOBEL       PTSUNNY   20  10  65 W16       30.11R WCI   6
LONE ROCK      PTSUNNY   20  11  68 W15       30.09R WCI   6
PLATTEVILLE    CLOUDY    19  13  80 W15       30.10R WCI   4
FORT MC COY    FLURRIES  19  13  77 W12       30.05R WCI   7
CAMP DOUGLAS   FLURRIES  19  12  73 W21       30.01R WCI   3
MAUSTON-NEW LI CLOUDY    20  12  73 W12G17    30.02R WCI   7
VIROQUA        CLOUDY    16  10  79 W15       30.04R WCI   1
WIS DELLS      CLOUDY    19  11  73 W16G28    30.02S WCI   4
$$

...ELSEWHERE IN WISCONSIN...


CITY           SKY/WX    TMP DP  RH WIND       PRES   REMARKS
MILWAUKEE      PTSUNNY   25  15  66 W15       30.02R WCI  13
MADISON        PTSUNNY   19  12  74 W12G17    30.04R WCI   7
GREEN BAY      FLURRIES  24  15  68 W20G29    29.93R WCI  10
EAU CLAIRE     LGT SNOW  17  11  77 SW22G32   29.97R WCI   0
BLACK RVR FLS  FLURRIES  20  11  68 W14G23    30.01R WCI   7
MEDFORD        LGT SNOW  15   9  78 W18G28    29.87R WCI  -2
WAUSAU         LGT SNOW  17  11  77 W16G24    29.89R WCI   2
WIS RAPIDS     CLOUDY    19  13  77 W13G21    29.97R WCI   6
MARSHFIELD     FLURRIES  17  11  77 W16G26    29.91R WCI   2
RICE LAKE      FLURRIES  18  11  74 W20       29.94R WCI   2
$$

...NORTHEAST IOWA...


CITY           SKY/WX    TMP DP  RH WIND       PRES   REMARKS
WATERLOO       CLOUDY    17   9  70 W15       30.16R WCI   2
DUBUQUE        CLOUDY    17  11  77 W14       30.12R WCI   3
DECORAH        PTSUNNY   16   9  73 W8G16     30.08R WCI   5
MASON CITY     CLOUDY    14   7  73 W22G30    30.15R WCI  -4
CHARLES CITY   CLOUDY    16   9  73 W21       30.13R WCI  -2
OELWEIN        PTSUNNY   16  10  79 W18       30.13R WCI  -1
$$

...ELSEWHERE IN IOWA...


CITY           SKY/WX    TMP DP  RH WIND       PRES   REMARKS
DES MOINES     CLOUDY    20   9  62 NW16      30.24R WCI   6
IOWA CITY      MOSUNNY   23  14  68 W15       30.21R WCI  10
FORT DODGE     CLOUDY    16   7  67 W13G20    30.21R WCI   2
MARSHALLTOWN   MOSUNNY   18  11  74 NW17      30.20R WCI   3
CEDAR RAPIDS   CLOUDY    19  15  84 W15       30.17R WCI   5
$$

...NORTHERN ILLINOIS...


CITY           SKY/WX    TMP DP  RH WIND       PRES   REMARKS
CHICAGO-OHARE  PTSUNNY   25  17  72 W12G21    30.10R WCI  14
CHICAGO-MIDWAY PTSUNNY   27  16  63 W13       30.12R WCI  16
MOLINE         CLOUDY    26  15  63 W12       30.17S WCI  16
ROCKFORD       PTSUNNY   22  15  75 W15G21    30.13R WCI   9
PEORIA         PTSUNNY   29  18  63 W8        30.19S WCI  21
$$

NOTE: "FAIR" INDICATES FEW OR NO CLOUDS BELOW 12,000 FEET WITH NO
SIGNIFICANT WEATHER AND/OR OBSTRUCTIONS TO VISIBILITY. WIND
SPEEDS ARE IN MILES-PER-HOUR.




USA.gov is the U.S. government's official web portal to all federal, state and local government web resources and services.